| time (UTC) | temp C | wind direction | speed KPH | gust KPH | rain 1hr cm | rain 24hr cm | rain mn cm | humidity % | barometer mb |
| 20260506224129 | 8 | 275 | 1.6 | 3.2 | 0.00 | 0.33 | 0.00 | 89 | 1008.7 |
| 20260506223629 | 8 | 275 | 1.6 | 4.8 | 0.00 | 0.33 | 0.00 | 89 | 1008.7 |
| 20260506223128 | 8 | 275 | 3.2 | 6.4 | 0.00 | 0.33 | 0.00 | 89 | 1008.7 |
| 20260506222130 | 8 | 224 | 4.8 | 6.4 | 0.00 | 0.38 | 0.00 | 88 | 1008.6 |
| 20260506221630 | 8 | 220 | 3.2 | 6.4 | 0.00 | 0.41 | 0.00 | 88 | 1008.6 |
| 20260506221130 | 8 | 178 | 1.6 | 4.8 | 0.00 | 0.41 | 0.00 | 88 | 1008.5 |
| 20260506220743 | 8 | 177 | 3.2 | 4.8 | 0.00 | 0.41 | 0.00 | 88 | 1008.4 |
| 20260506215629 | 8 | 187 | 1.6 | 6.4 | 0.00 | 0.41 | 0.41 | 88 | 1008.5 |
| 20260506215131 | 9 | 187 | 3.2 | 6.4 | 0.00 | 0.41 | 0.41 | 88 | 1008.5 |
| 20260506213132 | 9 | 166 | 3.2 | 6.4 | 0.00 | 0.43 | 0.41 | 88 | 1008.3 |
| 20260506212604 | 9 | 172 | 3.2 | 6.4 | 0.00 | 0.43 | 0.41 | 87 | 1008.3 |
| 20260506211603 | 10 | 223 | 8.0 | 22.5 | 0.00 | 0.48 | 0.41 | 87 | 1008.4 |
| 20260506211101 | 10 | 254 | 11.3 | 22.5 | 0.00 | 0.48 | 0.41 | 88 | 1008.4 |
| 20260506210602 | 10 | 109 | 14.5 | 20.9 | 0.00 | 0.51 | 0.41 | 88 | 1008.4 |
| 20260506205117 | 10 | 110 | 14.5 | 22.5 | 0.00 | 0.51 | 0.41 | 89 | 1008.3 |
| 20260506204602 | 9 | 116 | 11.3 | 17.7 | 0.00 | 0.51 | 0.41 | 89 | 1008.2 |
| 20260506203601 | 9 | 110 | 4.8 | 9.7 | 0.00 | 0.51 | 0.41 | 89 | 1008.2 |
| 20260506202101 | 10 | 149 | 14.5 | 20.9 | 0.00 | 0.56 | 0.41 | 89 | 1008.2 |
| 20260506201601 | 10 | 142 | 16.1 | 20.9 | 0.00 | 0.56 | 0.41 | 89 | 1008.0 |
| 20260506201100 | 10 | 138 | 14.5 | 20.9 | 0.00 | 0.56 | 0.41 | 89 | 1007.9 |
| 20260506200602 | 10 | 138 | 12.9 | 20.9 | 0.00 | 0.56 | 0.41 | 89 | 1007.9 |
| 20260506200116 | 10 | 105 | 14.5 | 20.9 | 0.00 | 0.58 | 0.41 | 89 | 1007.8 |
| 20260506195602 | 10 | 111 | 17.7 | 22.5 | 0.00 | 0.58 | 0.41 | 88 | 1007.8 |
| 20260506194604 | 10 | 122 | 20.9 | 24.1 | 0.00 | 0.58 | 0.41 | 88 | 1007.8 |
| 20260506193633 | 10 | 122 | 16.1 | 22.5 | 0.00 | 0.58 | 0.41 | 88 | 1007.5 |
| 20260506193102 | 10 | 103 | 12.9 | 19.3 | 0.00 | 0.58 | 0.41 | 88 | 1007.5 |
| 20260506192105 | 10 | 140 | 9.7 | 12.9 | 0.00 | 0.58 | 0.41 | 86 | 1007.4 |
| 20260506191117 | 10 | 139 | 11.3 | 12.9 | 0.00 | 0.58 | 0.41 | 86 | 1007.3 |
| 20260506190618 | 10 | 134 | 11.3 | 12.9 | 0.00 | 0.58 | 0.41 | 86 | 1007.2 |
| 20260506185602 | 10 | 122 | 11.3 | 14.5 | 0.00 | 0.58 | 0.41 | 86 | 1007.3 |
| 20260506185102 | 11 | 109 | 11.3 | 14.5 | 0.00 | 0.58 | 0.41 | 86 | 1007.3 |
| 20260506184101 | 11 | 98 | 6.4 | 11.3 | 0.00 | 0.58 | 0.41 | 84 | 1007.3 |
| 20260506183101 | 11 | 96 | 6.4 | 8.0 | 0.00 | 0.58 | 0.41 | 83 | 1007.3 |
| 20260506182602 | 11 | 90 | 4.8 | 8.0 | 0.00 | 0.58 | 0.41 | 82 | 1007.3 |
| 20260506182101 | 11 | 111 | 3.2 | 6.4 | 0.00 | 0.58 | 0.41 | 82 | 1007.1 |
| 20260506181601 | 11 | 133 | 3.2 | 6.4 | 0.00 | 0.58 | 0.41 | 82 | 1007.0 |
| 20260506175603 | 11 | 115 | 8.0 | 9.7 | 0.00 | 0.58 | 0.41 | 83 | 1006.7 |
| 20260506175102 | 11 | 129 | 8.0 | 9.7 | 0.00 | 0.58 | 0.41 | 84 | 1006.7 |
| 20260506174604 | 11 | 134 | 8.0 | 11.3 | 0.00 | 0.58 | 0.41 | 83 | 1006.7 |
| 20260506174101 | 11 | 129 | 9.7 | 12.9 | 0.00 | 0.58 | 0.41 | 84 | 1006.8 |
| 20260506173101 | 11 | 129 | 12.9 | 16.1 | 0.00 | 0.58 | 0.41 | 84 | 1006.7 |
| 20260506172603 | 11 | 124 | 14.5 | 19.3 | 0.00 | 0.58 | 0.41 | 84 | 1006.6 |
| 20260506172101 | 11 | 119 | 14.5 | 19.3 | 0.00 | 0.58 | 0.41 | 84 | 1006.6 |
| 20260506171600 | 11 | 125 | 14.5 | 17.7 | 0.00 | 0.58 | 0.41 | 84 | 1006.6 |
| 20260506171104 | 11 | 113 | 17.7 | 20.9 | 0.00 | 0.58 | 0.41 | 84 | 1006.5 |
| 20260506165555 | 11 | 127 | 16.1 | 19.3 | 0.00 | 0.58 | 0.41 | 84 | 1006.4 |
| 20260506165053 | 11 | 143 | 16.1 | 19.3 | 0.00 | 0.58 | 0.41 | 83 | 1006.3 |
| 20260506164553 | 11 | 144 | 16.1 | 17.7 | 0.00 | 0.58 | 0.41 | 84 | 1006.3 |
| 20260506164050 | 11 | 134 | 16.1 | 19.3 | 0.00 | 0.58 | 0.41 | 84 | 1006.2 |
| 20260506163549 | 11 | 131 | 17.7 | 22.5 | 0.00 | 0.58 | 0.41 | 84 | 1006.3 |
| 20260506163046 | 11 | 129 | 20.9 | 27.4 | 0.00 | 0.58 | 0.41 | 84 | 1006.4 |
| 20260506162541 | 11 | 125 | 22.5 | 27.4 | 0.00 | 0.58 | 0.41 | 84 | 1006.4 |
| 20260506162040 | 11 | 117 | 22.5 | 25.7 | 0.00 | 0.58 | 0.41 | 83 | 1006.6 |
| 20260506161535 | 11 | 113 | 24.1 | 25.7 | 0.00 | 0.58 | 0.41 | 84 | 1006.7 |
| 20260506161034 | 11 | 114 | 20.9 | 25.7 | 0.00 | 0.58 | 0.41 | 81 | 1006.9 |
| 20260506160535 | 11 | 113 | 19.3 | 22.5 | 0.00 | 0.58 | 0.41 | 79 | 1006.9 |
| 20260506160033 | 12 | 127 | 19.3 | 22.5 | 0.00 | 0.58 | 0.41 | 79 | 1007.0 |
| 20260506155532 | 12 | 108 | 19.3 | 22.5 | 0.00 | 0.58 | 0.41 | 77 | 1006.9 |
| 20260506155031 | 12 | 134 | 11.3 | 22.5 | 0.00 | 0.58 | 0.41 | 76 | 1007.0 |
| 20260506154030 | 12 | 44 | 6.4 | 11.3 | 0.00 | 0.58 | 0.41 | 70 | 1006.7 |
| 20260506153022 | 12 | 39 | 8.0 | 16.1 | 0.00 | 0.58 | 0.41 | 71 | 1006.6 |
| 20260506152538 | 12 | 68 | 8.0 | 16.1 | 0.00 | 0.58 | 0.41 | 73 | 1006.6 |
| 20260506152018 | 12 | 14 | 8.0 | 14.5 | 0.00 | 0.58 | 0.41 | 72 | 1006.6 |
| 20260506151532 | 12 | 26 | 11.3 | 16.1 | 0.00 | 0.61 | 0.41 | 74 | 1006.7 |
| 20260506151050 | 12 | 26 | 11.3 | 16.1 | 0.00 | 0.61 | 0.41 | 72 | 1006.6 |
| 20260506150511 | 12 | 40 | 9.7 | 14.5 | 0.00 | 0.61 | 0.41 | 73 | 1006.6 |
| 20260506150018 | 12 | 26 | 9.7 | 16.1 | 0.00 | 0.61 | 0.41 | 73 | 1006.7 |
| 20260506145508 | 12 | 12 | 8.0 | 17.7 | 0.00 | 0.69 | 0.41 | 75 | 1006.7 |
| 20260506145002 | 12 | 7 | 6.4 | 17.7 | 0.00 | 0.76 | 0.41 | 75 | 1006.6 |
| 20260506143501 | 11 | 25 | 8.0 | 14.5 | 0.00 | 0.79 | 0.41 | 76 | 1006.5 |
| 20260506143016 | 11 | 355 | 8.0 | 12.9 | 0.00 | 0.79 | 0.41 | 78 | 1006.5 |
| 20260506142500 | 11 | 0 | 8.0 | 14.5 | 0.00 | 0.79 | 0.41 | 79 | 1006.5 |
| 20260506142005 | 11 | 21 | 8.0 | 14.5 | 0.00 | 0.79 | 0.41 | 80 | 1006.4 |
| 20260506141458 | 11 | 355 | 8.0 | 14.5 | 0.00 | 0.79 | 0.41 | 79 | 1006.4 |
| 20260506141004 | 11 | 9 | 6.4 | 12.9 | 0.00 | 0.79 | 0.41 | 80 | 1006.3 |
| 20260506140450 | 11 | 11 | 4.8 | 9.7 | 0.00 | 0.79 | 0.41 | 79 | 1006.2 |
| 20260506135944 | 10 | 328 | 6.4 | 11.3 | 0.00 | 0.79 | 0.41 | 80 | 1006.2 |
| 20260506135441 | 10 | 7 | 6.4 | 12.9 | 0.00 | 0.79 | 0.41 | 79 | 1006.2 |
| 20260506134936 | 10 | 332 | 8.0 | 12.9 | 0.00 | 0.81 | 0.41 | 79 | 1006.3 |
| 20260506134435 | 11 | 334 | 8.0 | 14.5 | 0.00 | 0.86 | 0.41 | 80 | 1006.3 |
| 20260506133930 | 11 | 338 | 9.7 | 19.3 | 0.00 | 0.89 | 0.41 | 79 | 1006.3 |
| 20260506133431 | 11 | 310 | 8.0 | 19.3 | 0.00 | 0.89 | 0.41 | 80 | 1006.3 |
| 20260506132931 | 11 | 355 | 8.0 | 14.5 | 0.00 | 0.89 | 0.41 | 80 | 1006.3 |
| 20260506132431 | 11 | 299 | 8.0 | 16.1 | 0.00 | 0.89 | 0.41 | 80 | 1006.3 |
| 20260506131929 | 11 | 5 | 8.0 | 16.1 | 0.00 | 0.89 | 0.41 | 81 | 1006.3 |
| 20260506131428 | 11 | 7 | 6.4 | 12.9 | 0.00 | 0.89 | 0.41 | 81 | 1006.3 |
| 20260506130430 | 10 | 355 | 8.0 | 16.1 | 0.00 | 0.89 | 0.41 | 81 | 1006.1 |
| 20260506125928 | 10 | 319 | 9.7 | 20.9 | 0.00 | 0.89 | 0.41 | 82 | 1006.1 |
| 20260506125431 | 10 | 327 | 9.7 | 20.9 | 0.00 | 0.89 | 0.41 | 82 | 1006.1 |
| 20260506124430 | 10 | 333 | 11.3 | 19.3 | 0.00 | 0.89 | 0.41 | 84 | 1005.9 |
| 20260506123945 | 10 | 355 | 12.9 | 19.3 | 0.00 | 0.89 | 0.41 | 84 | 1005.9 |
| 20260506123430 | 10 | 21 | 11.3 | 17.7 | 0.00 | 0.89 | 0.41 | 84 | 1005.9 |
| 20260506122430 | 10 | 24 | 9.7 | 17.7 | 0.00 | 0.89 | 0.41 | 84 | 1006.0 |
| 20260506121930 | 10 | 29 | 8.0 | 16.1 | 0.00 | 0.89 | 0.41 | 84 | 1005.7 |
| 20260506121430 | 10 | 336 | 9.7 | 16.1 | 0.00 | 0.89 | 0.41 | 84 | 1005.7 |
| 20260506120430 | 10 | 5 | 12.9 | 20.9 | 0.03 | 0.89 | 0.41 | 84 | 1005.5 |
| 20260506115931 | 10 | 37 | 9.7 | 16.1 | 0.03 | 0.89 | 0.38 | 85 | 1005.5 |
| 20260506115428 | 10 | 18 | 8.0 | 14.5 | 0.03 | 0.89 | 0.38 | 85 | 1005.4 |
| 20260506114931 | 10 | 35 | 8.0 | 12.9 | 0.03 | 0.89 | 0.38 | 86 | 1005.3 |
| 20260506114429 | 10 | 3 | 6.4 | 11.3 | 0.03 | 0.89 | 0.38 | 87 | 1005.3 |
| 20260506113929 | 10 | 35 | 8.0 | 14.5 | 0.05 | 0.89 | 0.38 | 87 | 1005.4 |
| 20260506112931 | 10 | 350 | 8.0 | 16.1 | 0.05 | 0.89 | 0.38 | 86 | 1005.3 |
| 20260506112429 | 10 | 359 | 8.0 | 16.1 | 0.05 | 0.89 | 0.38 | 87 | 1005.3 |
| 20260506111944 | 10 | 330 | 6.4 | 14.5 | 0.08 | 0.89 | 0.38 | 88 | 1005.2 |
| 20260506111428 | 10 | 330 | 6.4 | 11.3 | 0.10 | 0.89 | 0.38 | 89 | 1005.3 |
| 20260506110930 | 10 | 329 | 8.0 | 12.9 | 0.13 | 0.89 | 0.38 | 89 | 1005.1 |
| 20260506110429 | 10 | 355 | 6.4 | 12.9 | 0.13 | 0.89 | 0.38 | 90 | 1005.0 |
| 20260506105930 | 10 | 9 | 4.8 | 11.3 | 0.15 | 0.89 | 0.23 | 91 | 1005.1 |
| 20260506105459 | 10 | 350 | 4.8 | 9.7 | 0.20 | 0.89 | 0.23 | 91 | 1004.9 |
| 20260506104931 | 10 | 309 | 3.2 | 8.0 | 0.23 | 0.89 | 0.23 | 92 | 1004.9 |
| 20260506104431 | 10 | 290 | 3.2 | 6.4 | 0.23 | 0.89 | 0.23 | 91 | 1004.9 |
| 20260506103929 | 10 | 78 | 3.2 | 6.4 | 0.20 | 0.86 | 0.23 | 91 | 1004.8 |
| 20260506103428 | 10 | 59 | 4.8 | 9.7 | 0.20 | 0.86 | 0.23 | 91 | 1004.8 |
| 20260506102924 | 10 | 46 | 6.4 | 9.7 | 0.20 | 0.86 | 0.23 | 91 | 1004.8 |
| 20260506102421 | 10 | 62 | 6.4 | 8.0 | 0.15 | 0.81 | 0.23 | 91 | 1004.9 |
| 20260506101410 | 10 | 73 | 8.0 | 38.6 | 0.15 | 0.79 | 0.23 | 90 | 1005.0 |
| 20260506100907 | 10 | 81 | 8.0 | 38.6 | 0.13 | 0.79 | 0.23 | 90 | 1005.0 |
| 20260506095907 | 10 | 107 | 1.6 | 6.4 | 0.05 | 0.71 | 0.15 | 88 | 1004.9 |
| 20260506095406 | 10 | 138 | 1.6 | 3.2 | 0.03 | 0.69 | 0.15 | 88 | 1004.8 |
| 20260506094903 | 10 | 138 | 1.6 | 6.4 | 0.00 | 0.66 | 0.15 | 88 | 1004.7 |
| 20260506094405 | 10 | 138 | 3.2 | 6.4 | 0.00 | 0.66 | 0.15 | 88 | 1004.6 |
| 20260506093903 | 10 | 138 | 3.2 | 8.0 | 0.00 | 0.66 | 0.15 | 88 | 1004.4 |
| 20260506092903 | 10 | 157 | 1.6 | 3.2 | 0.00 | 0.66 | 0.15 | 88 | 1004.2 |
| 20260506092403 | 10 | 157 | 1.6 | 3.2 | 0.00 | 0.66 | 0.15 | 88 | 1004.1 |
| 20260506091902 | 10 | 157 | 1.6 | 3.2 | 0.00 | 0.66 | 0.15 | 89 | 1004.1 |
| 20260506091402 | 10 | 157 | 1.6 | 6.4 | 0.00 | 0.66 | 0.15 | 89 | 1004.1 |
| 20260506090404 | 10 | 157 | 1.6 | 6.4 | 0.05 | 0.66 | 0.15 | 89 | 1004.1 |
| 20260506085903 | 10 | 138 | 1.6 | 6.4 | 0.05 | 0.66 | 0.13 | 89 | 1004.0 |
| 20260506085416 | 10 | 138 | 3.2 | 8.0 | 0.05 | 0.66 | 0.13 | 89 | 1003.8 |
| 20260506084902 | 10 | 138 | 4.8 | 8.0 | 0.05 | 0.66 | 0.13 | 90 | 1003.8 |
| 20260506084417 | 10 | 97 | 3.2 | 8.0 | 0.05 | 0.66 | 0.13 | 90 | 1003.7 |
| 20260506083903 | 9 | 97 | 3.2 | 8.0 | 0.05 | 0.66 | 0.13 | 90 | 1003.6 |
| 20260506083404 | 9 | 82 | 4.8 | 8.0 | 0.05 | 0.66 | 0.13 | 90 | 1003.6 |
| 20260506082901 | 9 | 93 | 4.8 | 6.4 | 0.05 | 0.66 | 0.13 | 90 | 1003.6 |
| 20260506082402 | 9 | 92 | 3.2 | 6.4 | 0.05 | 0.66 | 0.13 | 90 | 1003.6 |
| 20260506081901 | 9 | 92 | 1.6 | 6.4 | 0.05 | 0.66 | 0.13 | 90 | 1003.6 |
| 20260506080917 | 9 | 92 | 1.6 | 3.2 | 0.03 | 0.64 | 0.13 | 89 | 1003.5 |
| 20260506080402 | 9 | 92 | 0.0 | 3.2 | 0.00 | 0.61 | 0.13 | 89 | 1003.4 |
| 20260506073404 | 9 | 99 | 1.6 | 8.0 | 0.00 | 0.61 | 0.13 | 90 | 1003.6 |
| 20260506072904 | 9 | 269 | 1.6 | 3.2 | 0.00 | 0.61 | 0.13 | 91 | 1003.6 |
| 20260506072418 | 9 | 269 | 1.6 | 3.2 | 0.00 | 0.61 | 0.13 | 91 | 1003.5 |
| 20260506071903 | 9 | 269 | 1.6 | 3.2 | 0.00 | 0.61 | 0.13 | 91 | 1003.4 |
| 20260506071359 | 9 | 269 | 1.6 | 3.2 | 0.00 | 0.61 | 0.13 | 91 | 1003.4 |
| 20260506070858 | 9 | 176 | 3.2 | 8.0 | 0.00 | 0.61 | 0.13 | 92 | 1003.3 |
| 20260506070354 | 9 | 176 | 4.8 | 8.0 | 0.00 | 0.61 | 0.13 | 92 | 1003.4 |
| 20260506062329 | 8 | 299 | 3.2 | 6.4 | 0.00 | 0.61 | 0.13 | 92 | 1003.4 |
| 20260506060329 | 8 | 287 | 3.2 | 4.8 | 0.00 | 0.61 | 0.13 | 93 | 1003.4 |
| 20260506051304 | 8 | 241 | 4.8 | 8.0 | 0.00 | 0.64 | 0.13 | 92 | 1003.3 |
| 20260506050302 | 8 | 251 | 4.8 | 8.0 | 0.00 | 0.64 | 0.13 | 92 | 1003.1 |
| 20260506044303 | 8 | 334 | 3.2 | 4.8 | 0.00 | 0.64 | 0.13 | 92 | 1003.0 |
| 20260506043828 | 8 | 334 | 3.2 | 4.8 | 0.00 | 0.64 | 0.13 | 91 | 1003.1 |
| 20260506043301 | 8 | 264 | 3.2 | 6.4 | 0.00 | 0.64 | 0.13 | 91 | 1003.1 |
| 20260506042305 | 8 | 224 | 4.8 | 8.0 | 0.00 | 0.64 | 0.13 | 91 | 1003.1 |
| 20260506041801 | 8 | 229 | 4.8 | 8.0 | 0.00 | 0.64 | 0.13 | 91 | 1003.0 |
| 20260506041300 | 8 | 217 | 4.8 | 6.4 | 0.00 | 0.64 | 0.13 | 91 | 1003.0 |
| 20260506040818 | 8 | 228 | 4.8 | 6.4 | 0.00 | 0.64 | 0.13 | 91 | 1003.0 |
| 20260506040300 | 8 | 228 | 3.2 | 6.4 | 0.00 | 0.64 | 0.13 | 90 | 1003.1 |
| 20260506035305 | 8 | 181 | 4.8 | 8.0 | 0.00 | 0.64 | 0.13 | 90 | 1003.1 |
| 20260506034302 | 8 | 178 | 6.4 | 8.0 | 0.00 | 0.64 | 0.13 | 89 | 1003.3 |
| 20260506033802 | 8 | 174 | 6.4 | 11.3 | 0.00 | 0.64 | 0.13 | 89 | 1003.4 |
| 20260506032804 | 8 | 148 | 9.7 | 12.9 | 0.00 | 0.64 | 0.13 | 88 | 1003.4 |
| 20260506032306 | 8 | 143 | 6.4 | 12.9 | 0.00 | 0.64 | 0.13 | 88 | 1003.4 |
| 20260506031801 | 9 | 145 | 4.8 | 9.7 | 0.00 | 0.64 | 0.13 | 88 | 1003.5 |
| 20260506031316 | 9 | 165 | 4.8 | 8.0 | 0.00 | 0.64 | 0.13 | 87 | 1003.5 |
| 20260506030315 | 9 | 167 | 11.3 | 16.1 | 0.00 | 0.64 | 0.13 | 87 | 1003.8 |
| 20260506025801 | 9 | 178 | 12.9 | 17.7 | 0.00 | 0.64 | 0.13 | 87 | 1003.8 |
| 20260506025305 | 9 | 136 | 14.5 | 17.7 | 0.00 | 0.64 | 0.13 | 86 | 1004.0 |
| 20260506024802 | 9 | 126 | 16.1 | 22.5 | 0.00 | 0.64 | 0.13 | 86 | 1004.1 |
| 20260506024300 | 9 | 128 | 12.9 | 22.5 | 0.00 | 0.64 | 0.13 | 85 | 1004.1 |
| 20260506023801 | 10 | 130 | 8.0 | 17.7 | 0.00 | 0.64 | 0.13 | 85 | 1004.2 |
| 20260506023301 | 10 | 152 | 11.3 | 20.9 | 0.00 | 0.64 | 0.13 | 84 | 1004.2 |
| 20260506022317 | 10 | 145 | 19.3 | 25.7 | 0.00 | 0.64 | 0.13 | 83 | 1004.3 |
| 20260506021803 | 10 | 130 | 20.9 | 27.4 | 0.00 | 0.64 | 0.13 | 82 | 1004.5 |
| 20260506021301 | 10 | 134 | 22.5 | 27.4 | 0.00 | 0.64 | 0.13 | 82 | 1004.7 |
| 20260506020302 | 10 | 118 | 24.1 | 29.0 | 0.00 | 0.64 | 0.13 | 84 | 1005.0 |
| 20260506015801 | 10 | 116 | 25.7 | 30.6 | 0.00 | 0.64 | 0.13 | 83 | 1004.9 |
| 20260506015305 | 10 | 122 | 25.7 | 30.6 | 0.00 | 0.64 | 0.13 | 87 | 1005.0 |
| 20260506014802 | 10 | 114 | 25.7 | 29.0 | 0.00 | 0.64 | 0.13 | 88 | 1005.0 |
| 20260506014301 | 10 | 116 | 25.7 | 29.0 | 0.00 | 0.64 | 0.13 | 88 | 1005.0 |
| 20260506013802 | 10 | 120 | 25.7 | 29.0 | 0.00 | 0.64 | 0.13 | 87 | 1005.0 |
| 20260506013301 | 10 | 123 | 24.1 | 29.0 | 0.00 | 0.64 | 0.13 | 86 | 1005.2 |
| 20260506012801 | 10 | 126 | 24.1 | 29.0 | 0.00 | 0.64 | 0.13 | 85 | 1005.3 |
| 20260506012307 | 10 | 122 | 25.7 | 32.2 | 0.00 | 0.64 | 0.13 | 84 | 1005.4 |
| 20260506011801 | 11 | 124 | 27.4 | 32.2 | 0.00 | 0.64 | 0.13 | 82 | 1005.3 |
| 20260506011300 | 11 | 130 | 30.6 | 35.4 | 0.00 | 0.64 | 0.13 | 83 | 1005.4 |
| 20260506010303 | 11 | 118 | 30.6 | 37.0 | 0.00 | 0.64 | 0.13 | 82 | 1005.3 |
| 20260506005305 | 11 | 104 | 29.0 | 33.8 | 0.00 | 0.64 | 0.13 | 83 | 1005.5 |
| 20260506004802 | 11 | 120 | 30.6 | 38.6 | 0.00 | 0.64 | 0.13 | 84 | 1005.7 |
| 20260506004314 | 11 | 120 | 29.0 | 38.6 | 0.00 | 0.64 | 0.13 | 82 | 1006.0 |
| 20260506003817 | 10 | 112 | 29.0 | 41.8 | 0.00 | 0.64 | 0.13 | 82 | 1006.0 |
| 20260506002817 | 11 | 98 | 25.7 | 35.4 | 0.00 | 0.64 | 0.13 | 83 | 1006.3 |
| 20260506001804 | 11 | 97 | 25.7 | 32.2 | 0.00 | 0.64 | 0.13 | 84 | 1006.4 |
| 20260506001257 | 11 | 105 | 24.1 | 32.2 | 0.00 | 0.64 | 0.13 | 86 | 1006.5 |
| 20260506000752 | 10 | 99 | 16.1 | 29.0 | 0.00 | 0.64 | 0.13 | 86 | 1006.5 |
| 20260505235800 | 10 | 151 | 8.0 | 16.1 | 0.00 | 0.64 | 0.13 | 84 | 1006.4 |
| 20260505235242 | 10 | 163 | 8.0 | 14.5 | 0.03 | 0.64 | 0.13 | 84 | 1006.6 |
| 20260505234741 | 10 | 224 | 9.7 | 20.9 | 0.03 | 0.64 | 0.13 | 84 | 1006.7 |
| 20260505233241 | 11 | 128 | 25.7 | 43.5 | 0.05 | 0.64 | 0.13 | 83 | 1006.8 |
| 20260505232733 | 11 | 105 | 33.8 | 43.5 | 0.08 | 0.64 | 0.13 | 83 | 1007.0 |
| 20260505232231 | 11 | 98 | 35.4 | 41.8 | 0.10 | 0.64 | 0.13 | 83 | 1006.9 |
| 20260505231803 | 11 | 108 | 32.2 | 40.2 | 0.13 | 0.64 | 0.13 | 82 | 1006.7 |
| 20260505231232 | 11 | 111 | 27.4 | 38.6 | 0.13 | 0.64 | 0.13 | 80 | 1006.8 |
| 20260505230225 | 10 | 75 | 22.5 | 32.2 | 0.13 | 0.64 | 0.13 | 85 | 1006.9 |
| 20260505225724 | 10 | 95 | 20.9 | 32.2 | 0.13 | 0.64 | 0.00 | 86 | 1006.9 |
| 20260505225225 | 10 | 86 | 16.1 | 22.5 | 0.10 | 0.61 | 0.00 | 88 | 1007.1 |